Flag for Russia Weather past 2 weeks in Yuzhno-Sakhalinsk, Russia

Now
54 °F

Partly sunny.


Feels Like: 51 °F
Forecast: 42 / 60 °F
Wind: 8 mph from Northeast

Location: Yuzhno Airport-Sakhalinsk

Current Time: Jul 3, 2015 at 6:59:31 PM

Latest Report: Jul 3, 2015 at 6:30 PM


Visibility: N/A

Pressure: 29.74 "Hg

Humidity: 82%

Dew point: 48 °F

Location of Yuzhno-SakhalinskLocation

Historic Weather in Yuzhno-Sakhalinsk — Graph

°F

Yuzhno-Sakhalinsk temperature yesterday

Maximum temperature yesterday: 52 °F (at 12:30 PM)
Minimum temperature yesterday: 46 °F (at 7:30 PM)
Average temperature yesterday: 49 °F

Past Weeks' High & Low Weather Summary

 TemperatureHumidityPressure
High70 °F (Jul 1, 2:30 PM)100% (Jun 18, 9:30 PM)30.01 "Hg (Jun 18, 9:30 PM)
Low34 °F (Jun 27, 4:00 AM)46% (Jul 1, 2:30 PM)29.47 "Hg (Jun 30, 1:30 PM)
Average52 °F88%29.80 "Hg
* Reported Jun 18 5:00 PM — Jul 3 5:30 PM, Yuzhno-Sakhalinsk, Weather by CustomWeather, © 2015

Note: Actual official high and low records may vary slightly from our data, if they occured in-between our weather recording intervals... More about our weather records

Advertising

Yuzhno-Sakhalinsk weather history for previous 24 hours

 ConditionsComfort  
Time TempWeatherWind HumidityBarometerVisibility
5:30 PM
Fri, Jul 3
52 °FPartly sunny.10 mph88%29.71 "HgN/A
5:00 PM54 °FPartly sunny.13 mph82%29.71 "HgN/A
4:30 PM52 °FPartly sunny.15 mph88%29.71 "HgN/A
3:30 PM54 °FPartly sunny.15 mph82%29.71 "HgN/A
3:00 PM54 °FPartly sunny.15 mph82%29.68 "HgN/A
2:30 PM54 °FPartly sunny.15 mph88%29.68 "HgN/A
2:00 PM54 °FOvercast.15 mph88%29.68 "HgN/A
1:30 PM55 °FOvercast.13 mph82%29.68 "HgN/A
12:30 PM54 °FMore clouds than sun.13 mph82%29.68 "HgN/A
12:00 PM52 °FMore clouds than sun.13 mph88%29.68 "HgN/A
11:30 AM52 °FMore clouds than sun.15 mph88%29.68 "HgN/A
11:00 AM52 °FMore clouds than sun.13 mph94%29.68 "Hg4 mi
10:30 AM48 °FDrizzle. Fog.13 mph100%29.68 "Hg2 mi
10:00 AM48 °FFog.13 mph100%29.68 "Hg2 mi
9:30 AM48 °FMore clouds than sun.13 mph100%29.65 "HgN/A
9:00 AM48 °FMore clouds than sun.13 mph94%29.65 "HgN/A
8:30 AM46 °FMore clouds than sun.10 mph100%29.65 "HgN/A
8:00 AM46 °FMore clouds than sun.10 mph100%29.65 "HgN/A
7:30 AM46 °FMore clouds than sun.10 mph100%29.65 "HgN/A
7:00 AM46 °FMore clouds than sun.10 mph100%29.62 "HgN/A
6:30 AM46 °FMore clouds than sun.13 mph100%29.62 "HgN/A
6:00 AM46 °FSprinkles. More clouds than sun.15 mph100%29.62 "Hg5 mi
5:30 AM46 °FSprinkles. More clouds than sun.10 mph100%29.62 "Hg5 mi
5:00 AM46 °FMore clouds than sun.10 mph100%29.62 "HgN/A
4:00 AM46 °FSprinkles. Partly cloudy.15 mph100%29.59 "HgN/A
3:00 AM46 °FSprinkles. Partly cloudy.15 mph100%29.59 "HgN/A
2:00 AM46 °FSprinkles. Partly cloudy.15 mph100%29.59 "HgN/A
1:00 AM46 °FSprinkles. Partly cloudy.15 mph100%29.59 "HgN/A
12:00 AM46 °FPartly cloudy.13 mph100%29.59 "HgN/A
11:00 PM
Thu, Jul 2
46 °FPartly cloudy.10 mph100%29.59 "HgN/A
10:00 PM46 °FSprinkles. Partly cloudy.15 mph100%29.59 "Hg5 mi
9:30 PM46 °FSprinkles. Partly cloudy.15 mph100%29.59 "Hg5 mi
9:00 PM46 °FSprinkles. Partly cloudy.15 mph100%29.62 "Hg4 mi
8:30 PM46 °FSprinkles. Partly cloudy.15 mph100%29.59 "Hg4 mi
8:00 PM46 °FSprinkles. Broken clouds.15 mph100%29.59 "Hg5 mi
7:30 PM46 °FSprinkles. Broken clouds.17 mph100%29.59 "Hg4 mi
7:00 PM48 °FSprinkles. Broken clouds.17 mph94%29.59 "Hg5 mi
6:30 PM48 °FSprinkles. Broken clouds.10 mph100%29.59 "Hg5 mi
6:00 PM48 °FSprinkles. Broken clouds.10 mph100%29.59 "Hg5 mi
Weather by CustomWeather, © 2015

See weather overviewHow to use our weather pages